Lid_Strength_Index
0 4 5 6 10 10 12 11 9 8 8 7 8 8 8 7 7 7 1 0 0 0 -1 -1 -1 -1 -1 -1 -1 -1 -1 -1 -1 -1 -1 -1 -1 -1 -1 -1 -1 -1 -1 -1 -2 -2 -2 -2 -2
1 5 6 9 13 13 12 10 9 7 6 6 8 8 8 8 5 4 2 0 0 -0 -1 -1 -1 -1 -1 -1 -1 -1 -1 -1 -1 -1 -1 -1 -1 -1 -1 -1 -1 -1 -2 -2 -2 -2 -2 -2 -2
2 5 8 9 13 15 12 10 8 7 6 7 8 6 7 6 3 5 1 1 0 -0 -1 -1 -1 -1 -1 -1 -1 -1 -1 -1 -1 -1 -1 -1 -1 -1 -1 -1 -1 -2 -2 -2 -2 -2 -2 -2 -2
3 4 7 11 14 13 11 9 8 7 6 6 6 6 5 2 2 1 0 1 1 -0 -1 -1 -1 -1 -1 -1 -1 -1 -1 -1 -1 -1 -1 -1 -1 -1 -1 -1 -2 -2 -2 -2 -2 -2 -2 -2 -2
2 5 11 12 13 11 10 8 8 7 7 6 5 5 6 3 1 1 0 1 1 0 -1 -1 -1 -1 -1 -1 -1 -1 -1 -1 -1 -1 -1 -1 -1 -1 -1 -1 -2 -2 -2 -2 -2 -2 -2 -2 -2
5 5 10 13 12 11 10 7 7 7 6 5 5 5 6 1 2 1 1 1 1 0 -0 -1 -1 -1 -1 -1 -1 -1 -1 -1 -1 -1 -1 -1 -1 -1 -1 -1 -2 -2 -2 -2 -2 -2 -2 -2 -2
6 7 10 10 10 10 9 7 8 7 5 5 4 7 5 5 1 2 1 1 -0 -0 -0 -0 -1 -1 -1 -1 -1 -1 -1 -1 -1 -1 -1 -1 -1 -1 -1 -1 -1 -2 -2 -2 -2 -2 -2 -2 -2
5 6 9 9 11 10 8 7 6 6 6 3 3 6 7 5 1 1 1 1 0 -0 -0 -0 -1 -1 -1 -1 -1 -1 -1 -1 -1 -1 -1 -1 -1 -1 -1 -1 -1 -2 -2 -2 -2 -2 -2 -2 -2
3 8 10 10 10 9 7 8 6 4 5 4 4 4 5 5 1 1 2 2 1 1 0 -0 -0 -0 -1 -1 -1 -1 -1 -1 -1 -1 -1 -1 -1 -1 -1 -1 -1 -2 -2 -2 -2 -2 -2 -2 -2
6 9 9 7 7 8 7 7 7 7 6 5 5 4 5 5 4 2 3 2 2 1 1 0 -0 -0 -0 -0 -1 -1 -1 -1 -1 -1 -1 -1 -1 -1 -1 -1 -1 -1 -2 -2 -2 -2 -2 -1 -1
6 9 7 6 6 6 7 8 7 8 7 5 6 5 6 6 5 5 2 2 2 1 1 0 -0 -0 -0 -0 -1 -1 -1 -1 -1 -1 -1 -1 -1 -1 -1 -1 -1 -1 -1 -1 -1 -1 -1 -2 -1
9 7 7 6 6 7 7 8 9 9 7 6 6 5 6 6 6 6 4 3 2 1 1 0 -0 -0 -0 -0 -0 -0 -0 -1 -0 -1 -1 -1 -0 -0 -1 -1 -1 -1 -1 -1 -1 -1 -1 -1 -1
8 8 8 8 9 8 8 9 9 9 8 7 6 5 6 7 6 5 4 3 2 1 1 0 -0 0 -0 -0 -0 -0 -0 -0 -1 -1 -1 -1 -0 -0 -1 -1 -1 -1 -1 -1 -1 -1 -1 -1 -1
8 8 8 9 9 9 10 9 9 9 8 7 7 6 6 6 6 5 4 3 2 1 1 0 0 -0 -0 0 -0 -0 -0 -1 -1 -1 -1 -1 -1 -0 -0 -0 -0 -1 -1 -1 -1 -1 -0 -0 -1
8 9 9 9 9 10 9 11 11 10 9 9 8 7 7 6 6 6 5 4 3 1 1 1 0 -0 0 0 -0 -0 -0 -0 -0 -0 -1 -1 -1 -1 -0 -0 -0 -0 -1 -1 -1 -1 -1 -0 -0
10 10 12 10 10 9 10 13 10 9 10 10 9 8 7 6 7 6 5 5 4 2 1 1 0 -0 0 0 -0 -0 -0 -0 -0 -1 -1 -1 -1 -1 -0 0 -0 -1 -1 -1 -0 0 1 1 1
11 13 13 11 8 9 10 12 10 9 10 10 9 9 8 7 6 5 5 5 4 3 2 1 1 1 0 -0 -0 -0 -0 -0 -0 -1 -0 -1 -1 -1 -0 -0 -0 -1 -0 0 0 0 0 1 1
13 13 12 12 10 9 10 10 9 9 10 10 10 9 8 8 7 5 5 5 4 3 2 1 1 1 0 0 0 -0 0 -0 -0 -0 -0 -1 -1 -0 -0 -0 -1 -1 0 1 0 0 0 0 1
11 12 12 11 9 10 10 10 9 8 9 9 8 8 8 8 7 6 5 5 4 3 3 2 2 0 1 1 1 1 2 1 0 0 -1 -1 -1 -0 -0 -0 -0 -0 0 0 0 0 1 1 0
11 12 12 10 9 10 10 11 9 9 8 7 7 8 8 8 8 7 6 5 4 3 3 2 2 1 0 1 1 1 1 1 0 -0 -0 -1 -0 -0 0 0 0 -0 0 0 0 1 1 1 1
11 12 11 12 10 10 11 12 11 9 9 8 7 7 7 7 8 6 6 5 4 4 3 2 2 1 1 -0 0 1 0 1 1 1 1 0 -0 -0 -0 -0 -0 0 0 1 1 1 1 2 1
12 9 10 11 12 15 11 16 12 10 10 9 7 6 6 6 5 5 5 5 5 5 4 3 2 2 1 0 0 1 2 2 1 1 1 0 -0 -0 -0 -0 -0 0 0 1 0 0 1 1 2
11 8 10 11 12 13 13 15 13 11 11 9 8 7 5 5 5 5 5 4 4 3 4 3 2 2 1 1 0 1 2 1 1 1 1 1 0 -0 -0 -0 -0 0 0 0 0 0 1 1 1
8 10 11 12 12 16 14 14 14 12 10 9 8 7 6 4 4 4 4 4 4 3 3 2 2 2 2 1 1 1 1 1 2 1 2 1 1 1 0 0 0 0 0 0 0 0 0 1 1
9 11 15 16 16 16 13 14 13 10 8 8 8 7 6 4 4 4 4 4 4 3 3 2 2 2 1 2 2 1 1 1 2 2 2 2 2 1 1 0 0 0 0 -0 -0 0 0 1 1
10 11 13 19 18 16 13 16 12 9 7 7 6 6 5 5 4 5 4 4 4 3 2 2 2 2 1 1 1 1 1 1 1 1 1 2 2 1 0 0 0 0 -0 -0 -0 0 1 0 1
11 12 10 13 14 16 14 12 10 8 7 7 7 6 6 6 4 4 4 4 3 2 2 2 2 1 1 1 1 1 1 1 1 1 1 1 1 1 0 0 0 0 0 0 0 1 1 1 1
9 9 13 12 18 19 15 14 13 10 8 7 6 6 6 5 4 3 4 3 3 2 2 1 1 1 1 1 1 1 1 1 1 1 1 1 0 0 0 0 0 0 0 0 0 1 0 1 1
11 11 11 12 13 17 17 14 9 9 7 7 6 6 5 4 4 3 3 3 2 2 2 1 2 2 1 1 1 1 1 1 1 1 1 1 0 0 1 1 1 1 1 0 1 1 1 1 1
9 10 10 15 16 14 15 14 7 7 7 6 6 5 4 4 4 3 3 3 2 2 2 2 2 2 2 1 1 1 1 1 1 1 1 0 1 0 1 1 1 1 1 1 1 1 1 1 2